Regional Weather Roundup
Issued by NWS

Home | Current Version | Previous Version | Text Only | Print | Product List | Glossary On
Versions: 1 2 3 4 5 6 7 8 9 10 11 12 13 14 15 16 17 18 19 20 21 22 23 24 25 26 27
000
ASCA42 TJSJ 170410
RWRPR
PUERTO RICO/U.S. VIRGIN ISLANDS HOURLY WEATHER ROUNDUP
NATIONAL WEATHER SERVICE SAN JUAN PR
1200 AM AST TUE JAN 17 2017

PRZ001>002-007>008-010-170500-
PUERTO RICO

CITY           SKY/WX    TMP DP  RH WIND       PRES   REMARKS
SAN JUAN LMM   MOCLDY    77  70  78 NE12      30.08F
PONCE          PTCLDY    66  63  88 CALM      30.09S
CEIBA          PTCLDY    75  68  78 E13G20    30.10S
$$

VIZ001>002-170500-
U.S. VIRGIN ISLANDS

CITY           SKY/WX    TMP DP  RH WIND       PRES   REMARKS
CHARLOTTE AMA  CLEAR     77  64  65 E15       30.07S
CHRISTIANSTED  CLEAR     75  61  60 NE8       30.07F
$$

HOURLY WEATHER ROUNDUP FOR THE NEWS MEDIA

CITY           SKY/WX    TMP DP  RH WIND       PRES   REMARKS
ORLANDO        CLEAR     63  58  83 CALM      30.25S
NEW YORK       CLOUDY    40  27  59 SW8       30.33F WCI  34
NEWARK         CLOUDY    40  24  53 SW8       30.32S WCI  34
CHICAGO        CLOUDY    37  36  96 NE6       29.90F FOG     WCI  32
HARTFORD       PTCLDY    36  25  64 W10       30.25F WCI  28
BOSTON         MOCLDY    36  20  52 SW16      30.22F WCI  26
DALLAS         CLOUDY    54  42  64 N7        30.05R
PHILADELPHIA   CLOUDY    38  28  67 W6        30.34F WCI  33
LOS ANGELES    CLEAR     57  52  83 S5        30.04S
WASHINGTON DC  LGT RAIN  42  34  73 S6        30.31F



USA.gov is the U.S. government's official web portal to all federal, state and local government web resources and services.